Etusivu
METAR-TAF:

METAR-TAF

Lentoasemat :

S.t James Municipal Airport

St. James, Minnesota, Yhdysvallat

Leveyspiiri: 43-59-11N, Pituuspiiri: 094-33-29W, korkeus merenpinnasta: 325 m

Tämänhetkinen sää

Tämä raportti tehtiin 15 minuuttia sitten, kello 16.15 UTC
Tuuli 10 kn pohjoisesta
Lämpötila -8°C
Kosteus 73%
Ilmanpaine 1029 hPa
Näkyvyys: 16.1 km
selkeää

METAR: KJYG 011615Z AUTO 01010KT 10SM CLR M08/M12 A3038 RMK AO2 PWINO

Aika: 10:30 (16:30 UTC)


TAF: puuttuu

Säähavainnot ja -ennusteet yli 4000 lentoasemalta (METAR- ja TAF-raportit).

Käytössä olevat sääasemat on merkitty karttaan keltaisilla ja punaisilla pisteillä.

Aseta hiiri pisteen päälle nähdäksesi sääaseman nimen.

Klikkaa sitten nähdäksesi säähavainnot ja -ennusteet.

Kartan vaihtaminen: klikkaa mustalla rastilla varustettuja vihreitä pisteitä, niin voit zoomata sisään; viivalla varustettua vihreää pistettä, niin voit zoomata ulos tai vihreitä nuolia, niin pääset viereisille kartoille.


METAR-TAF: